Location: El Portezuelo
(28.4984°N, 16.3589°W)
Time: 10:08:20
(UTC+00:00)

Cosmos 1610 Rocket - Pass Details

Date: 20 January 2020
Orbit: 953 x 1002 km, 82.9° (Epoch: 19 February)

Event Time Altitude Azimuth Distance (km) Brightness Sun altitude
Rises 06:33:57 0° 350° (N) 3,681 7.3 -18.4°
Reaches altitude 10° 06:36:29 10° 347° (NNW) 2,737 6.6 -17.9°
Maximum altitude 06:42:40 63° 268° (W) 1,097 4.5 -16.6°
Drops below altitude 10° 06:48:53 10° 188° (S) 2,753 6.9 -15.3°
Sets 06:51:26 0° 185° (S) 3,704 7.7 -14.7°
